Location: Six Mile Lake
(44.9000°N, 79.7170°W)
Time: 17:33:56
(UTC-04:00)

EO-79 - Pass Details

Date: 03 July 2022
Orbit: 588 x 603 km, 98.0° (Epoch: 07 August)

Event Time Altitude Azimuth Distance (km) Brightness Sun altitude
Rises 03:44:13 0° 5° (N) 2,855 ? -14.9°
Reaches altitude 10° 03:46:31 10° 357° (N) 1,950 ? -14.7°
Maximum altitude 03:50:23 36° 291° (WNW) 966 ? -14.3°
Enters shadow 03:52:36 21° 238° (WSW) 1,371 ? -14.1°
